CAPE
2873 2978 2809 2875 2779 2113 1571 1936 1317 1574 1596 2311 2619 2564 2170 2204 2245 2749 2378 2367 2064 2023 1961 1508 1337 267 16 269 55 103 50 2 0 3 309 81 1 0 0 4 0 0 0
3090 3102 3110 3141 3220 2947 2215 1964 2246 2276 2371 2061 2615 2398 2361 2137 2503 2470 2655 2031 2362 2185 1787 1813 1792 1129 203 331 764 94 60 124 30 14 345 215 80 14 28 204 189 86 94
3003 3204 3212 3263 3326 3350 3198 2558 2533 2391 2655 2791 2969 2546 2402 2543 2313 2545 2775 2688 1885 2631 2377 1858 1511 1515 953 237 339 454 248 291 388 72 145 352 348 526 247 180 309 269 143
2472 3213 3274 3316 3418 3500 3473 3352 2860 2866 2634 2867 2956 3023 2955 2666 2620 2522 2625 2875 2879 2272 2701 2394 2061 1477 1145 952 283 74 303 379 143 211 150 26 300 362 426 381 370 370 219
2115 2615 3106 3163 3382 3440 3539 3532 3541 3188 3140 3006 3179 3190 2933 3033 2849 2612 2560 2995 3146 2980 2500 2669 2485 2139 1533 1117 1144 590 150 142 512 205 240 276 156 361 307 198 157 218 288
2290 2440 2926 3051 3191 3452 3427 3487 3447 3579 3411 3522 3419 3381 3309 3141 3044 2639 2589 2701 3132 3052 2936 2568 2689 2344 2012 1375 1037 1057 674 147 156 366 297 207 212 164 291 216 249 196 180
1984 2638 2844 3061 3202 3364 3607 3547 3479 3556 3641 3511 3632 3548 3408 3450 3015 2690 2373 2559 2676 2926 3026 2927 2692 2735 2254 1839 1167 894 645 539 285 187 116 197 266 309 239 266 302 224 175
2174 2332 2854 3133 3215 3458 3636 3742 3685 3563 3668 3702 3617 3644 3509 3568 3275 2783 2380 2376 2529 2681 2809 2948 2875 2723 2712 2253 1678 981 692 464 372 410 308 187 370 632 510 372 307 364 333
2339 2202 2446 3057 3234 3394 3657 3781 3893 3816 3745 3872 3852 3719 3696 3516 3399 3076 2615 2347 2355 2390 2644 2817 2938 2905 2770 2336 2004 1554 877 583 328 216 446 593 319 369 484 510 367 271 179
2183 2247 2703 2623 3244 3424 3596 3785 3977 4008 3853 3901 3905 3910 3786 3809 3688 3159 2862 3026 2537 2372 2427 2303 2350 2673 2789 2409 2168 1833 1606 1062 532 332 178 187 198 205 227 318 303 307 244
2220 2765 2678 2970 2734 3542 3734 3877 4002 4049 4021 3887 3908 3932 3989 3954 3988 3428 2787 3332 3114 2612 2213 1893 1954 2265 1998 2151 2136 2044 1795 1681 944 476 256 85 60 31 98 165 270 232 149
1954 2822 3104 3244 3014 3352 3727 3967 4132 4159 4062 3981 3915 3951 4010 4038 3848 3525 2886 2954 3231 3006 2568 2312 2138 2188 2068 1814 1578 2226 1808 1520 1391 481 190 51 16 46 12 54 53 96 182
2370 2562 3013 3313 3588 3329 3833 3934 4131 4190 4078 3996 3797 3905 3762 3791 3939 3463 2832 2582 2328 2466 2027 1826 1834 1864 1453 881 1296 1649 1667 1385 1001 439 218 87 0 9 8 82 81 122 102
2710 3063 3250 3467 3803 3758 3728 4090 4074 4005 4032 3789 3798 3503 3755 3682 3225 3725 2812 2270 2100 2160 2168 1931 2041 1740 1507 1294 809 415 724 1049 802 501 179 0 0 30 68 176 63 31 8
3689 3615 3677 3772 3803 3998 3025 3064 3913 2986 2724 3899 3499 3564 3267 3311 3092 2370 2401 2716 3006 2320 2148 1989 1944 1597 1246 1196 885 668 600 727 598 237 0 0 6 88 51 1 2 7 26
3550 3741 3448 3412 3815 3759 2426 1334 13 167 218 857 1614 2661 1238 1028 928 1368 1507 1491 1364 1850 1485 1396 1286 1097 857 677 449 383 400 482 276 4 3 8 21 1 2 0 0 0 0
3630 3149 3200 3037 3671 3538 2770 2064 1337 24 0 3 60 340 606 177 113 119 214 384 761 1301 1569 1164 842 420 120 45 27 40 45 4 39 17 37 25 2 0 0 0 0 0 0
3760 2987 3072 2770 3830 3396 3484 3090 2337 1637 1518 581 0 0 0 0 0 0 0 0 0 0 23 32 4 0 1 1 0 1 1 4 3 9 49 0 7 0 1 0 0 0 0
2988 2832 2990 2935 3062 3098 2567 2319 2274 2482 1920 161 0 0 0 0 0 0 0 0 0 1 0 0 0 0 0 0 0 0 0 1 7 13 0 0 0 0 0 0 0 0 0
2107 1946 2066 1818 1788 1658 1436 1239 1059 864 548 185 181 2 0 0 0 0 2 0 0 0 0 6 5 4 1 0 0 0 0 6 10 4 0 0 0 0 0 0 0 0 0
1141 1129 1168 1127 1063 984 901 730 731 646 539 524 105 0 0 8 14 11 0 0 0 1 0 4 1 3 0 0 0 1 0 0 0 4 0 0 0 0 0 2 0 0 0
746 709 754 738 728 652 559 505 437 331 160 24 0 0 0 0 1 6 2 3 1 1 20 8 2 3 2 1 0 0 0 2 0 0 0 0 3 5 13 8 4 0 0
409 215 240 159 115 18 5 0 0 25 29 13 0 0 0 12 11 5 5 0 8 4 18 12 4 2 3 8 2 0 1 0 0 2 0 0 0 8 4 0 0 0 0
0 0 0 3 16 8 0 23 20 28 52 39 38 39 58 76 77 40 32 11 4 14 1 3 1 0 0 1 0 0 1 1 3 2 2 10 20 3 0 0 0 0 0
0 0 0 0 0 0 0 0 0 0 0 0 0 0 0 0 0 0 113 125 128 131 81 47 41 29 4 4 2 10 0 3 21 18 2 0 1 0 0 0 0 0 0
0 0 0 0 0 0 0 0 0 0 0 1 0 0 0 0 0 1 0 0 0 0 24 71 96 79 61 76 4 0 0 0 0 0 0 0 0 0 0 0 0 0 0
CIN
-110 -123 -121 -114 -108 -139 -138 -103 -123 -71 -49 -15 -6 -20 -36 -30 -12 -1 -5 -11 -41 -52 -56 -89 -120 -193 -248 -150 -171 -151 -176 -74 0 -44 -60 -155 -46 0 0 -32 0 0 0
-123 -102 -96 -73 -63 -85 -127 -115 -92 -65 -50 -41 -16 -9 -21 -37 -14 -3 -3 -33 -25 -72 -86 -58 -66 -154 -259 -201 -138 -204 -191 -169 -233 -243 -72 -161 -221 -200 -230 -138 -109 -112 -96
-102 -87 -77 -75 -64 -62 -76 -115 -78 -95 -59 -50 -18 -17 -17 -29 -43 -20 -3 -5 -44 -8 -41 -89 -105 -132 -207 -278 -233 -197 -198 -171 -142 -214 -160 -86 -111 -91 -122 -99 -58 -40 -60
-133 -106 -104 -97 -90 -77 -74 -77 -105 -80 -104 -62 -56 -37 -20 -34 -39 -41 -25 -9 -10 -26 -9 -64 -103 -153 -209 -239 -288 -305 -210 -198 -238 -205 -217 -256 -82 -66 -70 -77 -40 -30 -57
-181 -158 -172 -170 -125 -98 -86 -89 -80 -102 -87 -99 -69 -57 -59 -32 -45 -58 -46 -11 -5 -9 -30 -16 -64 -130 -198 -245 -207 -243 -301 -284 -168 -240 -220 -172 -183 -108 -111 -109 -91 -67 -59
-148 -182 -168 -192 -197 -146 -136 -123 -107 -105 -103 -67 -69 -66 -57 -71 -64 -90 -86 -59 -26 -27 -51 -86 -87 -122 -157 -207 -235 -242 -258 -328 -272 -197 -212 -237 -199 -147 -66 -86 -58 -24 -5
-137 -136 -161 -194 -193 -188 -165 -146 -135 -130 -111 -104 -85 -89 -107 -103 -136 -142 -158 -118 -71 -48 -60 -69 -89 -98 -166 -198 -273 -301 -337 -311 -336 -312 -262 -175 -124 -118 -124 -88 -32 -43 -49
-133 -164 -151 -166 -189 -174 -166 -147 -135 -147 -134 -128 -137 -137 -152 -166 -190 -209 -212 -154 -120 -111 -95 -91 -77 -73 -29 -137 -257 -318 -350 -384 -394 -281 -265 -245 -73 -34 -50 -53 -69 -66 -44
-167 -201 -203 -181 -193 -191 -186 -180 -156 -141 -151 -156 -155 -162 -180 -223 -209 -223 -220 -194 -194 -235 -206 -149 -103 -81 -83 -81 -98 -216 -288 -367 -380 -375 -228 -195 -195 -133 -62 -61 -71 -70 -76
-177 -206 -219 -231 -224 -232 -227 -204 -169 -158 -177 -145 -156 -163 -171 -174 -179 -222 -201 -112 -194 -226 -215 -306 -356 -202 -121 -81 -98 -151 -178 -308 -357 -402 -324 -321 -244 -212 -156 -93 -58 -23 -17
-192 -200 -227 -268 -294 -244 -218 -191 -167 -150 -144 -155 -156 -151 -143 -162 -167 -214 -258 -131 -179 -224 -273 -277 -269 -257 -223 -101 -52 -41 -156 -129 -234 -291 -305 -267 -267 -298 -171 -136 -67 -21 -19
-169 -179 -239 -259 -303 -251 -223 -179 -144 -129 -140 -147 -151 -148 -154 -159 -170 -195 -249 -188 -109 -92 -151 -132 -143 -149 -161 -153 -145 -29 -42 -57 -32 -195 -264 -297 -227 -134 -78 -98 -115 -53 -19
-120 -148 -185 -230 -234 -236 -178 -151 -110 -104 -117 -137 -144 -149 -170 -152 -132 -166 -250 -253 -249 -171 -244 -208 -197 -164 -207 -336 -208 -109 -44 -35 -36 -129 -184 -185 0 -7 -108 -64 -51 -32 -19
-141 -141 -149 -173 -178 -176 -129 -103 -89 -96 -110 -133 -145 -172 -137 -141 -141 -102 -254 -329 -336 -285 -208 -205 -187 -182 -182 -213 -311 -381 -204 -52 -61 -130 -183 0 0 -198 -88 -23 -15 -12 -28
-145 -149 -144 -136 -149 -131 -193 -275 -110 -245 -306 -119 -147 -103 -118 -109 -147 -281 -270 -203 -173 -269 -184 -173 -170 -209 -241 -215 -225 -232 -213 -57 -70 -216 0 0 -60 -82 -108 -31 -16 -47 -46
-165 -153 -170 -149 -122 -110 -316 -533 -382 -256 -1002 -608 -405 -170 -494 -561 -600 -445 -380 -364 -345 -252 -322 -297 -279 -267 -276 -303 -333 -283 -168 -63 -77 -8 0 0 -60 -3 -42 0 -30 0 0
-128 -174 -160 -161 -83 -90 -201 -285 -423 -583 0 -35 -974 -732 -626 -807 -810 -754 -668 -594 -488 -330 -225 -285 -314 -430 -549 -578 -534 -422 -334 -10 -208 -183 -46 -11 0 0 0 0 0 0 0
-53 -140 -111 -114 -26 -43 -48 -79 -183 -294 -303 -542 0 0 0 0 0 0 0 -24 -103 0 -500 -630 -266 0 0 0 0 0 0 -40 -25 -15 -7 0 -30 0 0 0 0 0 0
-86 -67 -37 -31 -20 -23 -96 -147 -114 -83 -150 -679 0 0 0 0 0 0 0 0 0 0 0 0 0 0 0 0 0 0 0 0 -22 -55 0 0 0 0 0 0 0 0 0
-172 -210 -157 -202 -159 -168 -212 -182 -219 -275 -360 -466 -438 -280 0 0 0 0 -604 0 0 0 -5 -192 -3 -1 0 -1 0 0 0 0 -4 -17 0 0 0 0 0 0 0 0 0
-196 -207 -198 -184 -167 -160 -143 -200 -218 -266 -279 -281 -475 0 0 -503 -497 -640 0 0 0 0 -1 -4 -1 -2 0 0 0 -2 0 0 0 -24 0 0 0 0 -1 -33 0 0 0
-168 -181 -117 -98 -143 -176 -204 -214 -201 -226 -315 -297 0 0 0 0 -146 -481 -48 -1 -52 -64 -311 -250 -1 0 0 0 0 0 0 -2 -3 0 0 0 -26 -7 -8 -4 -10 0 0
-44 -143 -142 -233 -293 -260 -264 0 0 -155 -170 -392 0 0 0 -326 -366 -195 -169 -20 -255 -122 -169 -178 0 0 0 0 0 0 0 0 0 -46 0 -11 0 -22 -6 0 0 0 0
0 0 0 -34 -235 -51 -17 -289 -312 -263 -236 -225 -208 -180 -143 -134 -127 -89 -47 -93 -138 -85 -6 0 0 0 0 0 0 0 -42 -35 -35 -24 -25 -11 -4 -8 -1 0 0 0 0
0 0 0 0 0 0 0 0 0 0 0 0 0 0 0 0 0 0 -7 -5 -6 -3 -8 -22 -38 -48 -27 -35 -33 -26 0 -14 -5 -6 -6 0 -19 -2 0 0 0 0 0
0 0 0 0 0 0 0 0 0 0 0 0 0 0 0 0 0 0 0 0 0 0 -13 -17 -11 -6 -10 -13 -3 0 0 0 0 0 0 0 0 0 0 0 0 0 0
Wind_Speed
28 27 27 25 23 23 21 16 17 14 11 8 2 6 5 4 9 10 14 12 13 13 10 11 9 8 11 8 7 7 7 8 10 10 10 11 11 11 12 10 10 9 7
25 25 24 23 25 25 26 25 22 22 19 19 13 6 6 5 7 11 14 18 14 15 13 8 5 6 12 10 3 5 4 5 6 7 10 9 7 6 7 7 7 7 6
21 22 24 24 24 24 24 25 25 24 22 19 18 14 11 11 12 14 15 17 22 9 9 10 9 7 6 9 6 1 1 3 6 6 8 10 9 7 8 9 8 7 9
24 25 24 25 24 23 23 23 25 24 22 22 20 17 16 16 16 16 16 19 20 20 12 13 11 11 10 8 8 7 7 5 5 8 9 10 14 10 10 10 12 9 8
25 27 29 27 25 25 24 24 23 23 22 22 21 21 20 19 19 19 19 18 18 18 20 15 15 15 15 13 12 12 11 11 11 10 12 13 12 13 11 11 13 13 9
21 27 23 25 24 24 25 24 25 23 22 21 22 22 22 21 21 21 19 17 17 17 18 19 19 19 19 18 16 15 14 14 15 15 16 15 14 14 13 13 14 17 22
23 22 23 22 23 24 24 24 24 23 22 23 22 24 24 24 23 22 22 19 16 16 18 19 20 20 20 20 21 21 19 18 18 17 19 18 18 16 16 16 17 20 21
15 19 15 17 19 20 21 22 22 21 22 23 24 24 25 25 24 23 22 20 17 17 17 19 19 20 20 21 22 23 23 23 22 21 22 21 20 19 19 21 22 21 24
16 19 14 15 15 16 18 20 19 19 20 22 22 23 25 26 23 24 22 20 21 22 19 18 22 23 23 22 22 25 25 26 24 25 24 23 22 20 21 24 27 26 24
15 14 14 15 14 17 18 18 17 18 19 18 20 22 23 23 22 22 23 21 23 22 20 25 22 22 22 24 24 23 26 26 26 26 27 26 23 23 21 19 15 20 22
15 16 15 15 16 15 15 16 17 17 16 19 19 19 19 20 21 20 21 22 24 24 26 25 20 21 24 24 27 27 27 24 25 26 27 29 29 26 21 16 16 16 19
23 20 18 17 17 17 16 16 16 17 17 17 17 17 17 17 18 17 19 23 22 23 24 26 26 26 23 25 27 29 28 26 26 27 27 30 34 24 17 19 17 17 14
33 25 22 21 21 21 18 17 17 17 17 17 16 16 16 16 16 17 17 19 20 21 23 27 29 31 30 25 26 27 27 26 25 24 22 19 4 19 17 17 15 12 13
29 20 17 16 16 17 19 17 16 16 16 16 16 17 18 18 18 17 14 15 18 21 24 27 29 29 29 30 29 27 27 27 26 25 23 22 25 22 16 13 11 10 10
23 20 18 17 15 16 18 18 17 19 20 18 18 19 18 18 18 19 20 22 18 18 21 24 24 24 27 31 33 33 29 26 27 25 25 26 22 15 11 6 7 6 8
22 19 18 17 16 16 16 18 18 17 19 19 18 17 18 17 18 19 22 24 25 18 22 25 25 26 27 30 31 31 28 26 26 24 21 17 15 6 5 6 4 5 3
21 19 18 16 15 14 15 17 18 18 16 16 17 18 18 19 20 21 23 24 25 26 28 29 30 30 29 30 29 27 24 20 20 19 16 10 7 6 4 4 6 3 4
21 22 16 14 13 14 14 14 14 18 19 19 18 18 18 18 19 20 21 24 27 26 26 25 24 24 25 24 22 21 19 19 12 15 12 10 2 4 4 5 6 5 2
18 17 15 15 12 11 11 14 16 16 14 15 16 18 18 17 18 19 20 22 22 22 20 20 20 21 22 20 18 16 13 11 8 9 7 3 3 6 6 9 8 5 2
16 16 14 13 12 12 13 14 13 14 15 16 17 17 17 19 21 22 22 21 20 19 17 17 18 19 18 17 14 11 9 7 6 6 8 9 12 6 10 8 6 4 3
15 14 13 14 13 14 13 14 14 15 18 18 19 20 19 21 21 18 20 20 19 16 15 16 14 14 14 13 13 13 12 12 12 15 13 12 11 8 6 6 3 2 3
13 11 12 12 12 13 15 16 17 17 17 19 21 22 20 20 20 20 18 17 15 14 13 12 13 13 12 11 9 8 8 5 6 4 5 3 2 2 3 3 3 2 2
8 8 8 9 10 10 12 12 12 13 14 15 16 15 16 18 18 18 17 16 14 13 13 14 16 16 15 12 10 7 5 3 2 1 2 2 2 4 6 5 3 4 5
4 6 7 8 10 11 12 12 13 14 13 15 16 18 18 17 16 16 16 14 13 15 16 17 16 15 12 11 9 7 8 7 3 1 2 6 8 6 8 11 9 8 8
5 6 5 7 9 10 11 12 13 14 15 17 19 21 21 21 21 23 18 18 15 15 15 15 14 12 10 9 9 9 12 12 5 4 6 7 8 10 11 13 13 14 12
5 7 9 9 11 13 14 14 15 16 18 19 19 19 21 22 22 22 23 23 23 24 20 17 15 10 10 10 9 9 11 10 11 11 10 12 14 15 16 17 17 14 13
Wind_Direction
183 185 187 189 188 189 191 190 192 195 192 186 185 175 177 168 169 173 178 177 180 179 171 170 165 153 164 138 111 97 78 66 33 38 62 69 62 54 53 52 44 40 48
182 184 187 188 189 191 193 193 192 192 192 194 190 195 200 194 180 185 189 189 189 190 190 188 189 180 184 174 81 133 113 68 47 19 28 39 48 63 56 48 43 37 33
181 183 186 189 190 192 193 195 195 195 196 194 195 195 193 191 190 190 194 197 199 218 225 212 215 210 217 199 202 213 189 5 0 353 354 354 355 7 10 8 11 11 7
184 186 188 189 190 191 191 193 194 194 194 194 193 193 194 194 195 196 197 199 202 205 224 219 235 231 243 244 244 256 297 299 293 319 326 325 335 336 344 348 347 349 345
186 189 191 191 193 194 194 194 193 193 194 194 194 195 195 196 197 197 198 201 206 211 213 229 235 239 241 249 273 279 272 272 298 297 307 319 321 326 315 324 331 340 335
191 191 192 195 195 196 197 197 196 196 196 194 195 197 197 199 199 200 200 205 210 216 222 224 229 232 237 243 250 259 266 269 272 287 295 296 301 309 315 311 316 325 327
193 191 192 195 197 199 199 199 200 201 199 200 200 200 203 206 207 207 207 209 213 218 223 229 232 238 239 244 241 245 252 257 260 268 280 288 291 292 301 305 310 313 316
226 197 205 202 201 201 203 204 204 206 205 204 206 208 211 214 215 216 216 219 225 229 234 231 242 248 260 252 255 255 256 257 262 272 274 280 293 306 302 303 303 309 312
211 202 214 209 210 211 213 210 211 212 213 211 213 216 219 222 223 224 225 230 234 235 243 258 246 245 248 247 260 269 268 268 268 262 274 279 281 288 297 301 299 300 302
222 221 241 225 219 217 215 218 220 221 221 224 225 223 224 229 233 234 231 241 243 246 252 242 255 251 252 249 250 262 270 268 271 273 266 269 270 276 273 279 276 284 299
239 252 245 240 231 238 235 227 231 233 236 227 230 235 237 237 239 242 240 245 247 252 250 254 277 270 262 260 254 260 263 277 273 271 268 266 262 261 272 276 272 272 282
268 261 256 256 252 255 246 243 243 245 241 242 243 249 253 252 252 261 254 244 252 259 262 286 289 292 279 265 262 260 266 272 277 275 278 279 261 253 261 271 263 259 272
267 268 266 265 262 261 257 252 253 248 246 246 251 259 265 280 276 267 264 255 255 261 273 282 293 303 305 294 274 268 266 275 283 283 288 305 253 312 278 264 264 251 289
269 268 267 263 260 256 265 255 253 249 247 255 264 267 282 286 290 293 283 275 269 271 272 276 273 282 290 299 300 297 286 278 273 270 271 281 295 297 285 269 253 265 284
269 268 268 268 260 258 263 266 256 268 270 265 269 284 283 288 296 305 308 309 291 287 289 296 297 296 293 296 295 294 290 281 275 271 273 284 288 284 289 272 275 241 287
268 267 268 269 264 261 257 268 284 281 282 284 290 288 299 303 306 308 309 314 316 306 305 304 303 304 303 303 302 300 293 284 273 266 271 262 276 263 286 278 212 257 242
269 269 270 266 264 259 258 259 265 282 291 294 296 298 300 301 308 311 314 316 315 311 308 308 308 309 310 311 310 309 303 295 293 267 274 294 264 291 230 194 171 180 158
269 272 266 262 262 265 256 263 266 268 273 282 300 301 304 307 311 314 318 319 317 319 317 317 319 323 325 326 327 322 321 322 321 306 329 321 272 147 234 172 170 161 184
270 271 268 270 270 264 272 276 278 282 285 290 294 300 308 313 318 322 325 325 326 329 330 329 328 326 327 328 330 334 337 334 325 316 340 75 100 133 164 144 151 162 173
271 268 270 271 271 277 280 278 281 283 287 295 298 301 306 311 313 318 325 330 330 329 333 336 335 336 342 350 355 6 18 37 46 67 103 115 130 140 139 153 157 168 194
268 262 264 265 270 274 277 284 283 287 289 298 302 308 310 310 313 322 323 327 331 336 338 341 345 353 358 11 19 28 51 72 95 120 119 123 130 140 151 156 173 177 200
261 258 256 258 268 275 280 283 284 288 294 297 302 307 308 315 319 324 326 328 339 343 348 349 344 343 347 352 355 12 10 40 74 94 120 128 145 179 178 186 197 214 228
253 263 270 282 283 286 286 288 289 295 307 317 320 324 323 322 326 325 324 326 335 336 336 334 330 328 332 333 335 343 6 11 350 45 321 286 263 273 295 289 297 268 282
292 292 289 298 298 297 303 302 308 313 317 319 324 327 329 333 333 336 326 329 333 327 326 323 323 326 330 335 339 327 325 336 351 306 276 289 288 282 288 297 290 289 284
319 315 317 311 307 316 320 320 323 322 327 329 329 331 335 339 337 335 331 328 330 327 326 327 326 328 328 326 325 321 319 310 300 309 318 313 296 295 286 288 288 288 287
317 320 317 320 315 316 318 319 322 324 327 327 330 331 333 335 334 329 328 329 330 328 322 320 320 327 326 320 330 332 328 327 318 319 314 305 300 291 289 283 287 284 282